#timestamp,LO_Frequency,Hit 
1503244815.3,286047000.4,N
1503244835.2,286046999.9,N
1503244855.9,286046999.2,N
1503244875.7,286046997.4,N
1503244895.6,286046993.3,N
1503244915.4,286046992.9,N
1503244935.2,286046988.7,N
1503244955.1,286046989.9,N
1503244956.0,286046989.9,N
1503244975.8,286046991.5,N
1503244995.6,286046989.3,N
1503245015.4,286046991.0,N
1503245035.3,286046993.1,N
1503245055.1,286046989.1,N
1503245075.8,286046992.7,N
1503245095.7,286046990.7,N
1503245115.5,286046990.1,N
1503245135.3,286046988.7,N
1503245155.2,286046988.9,N
1503245175.9,286046989.2,N
1503245195.7,286046991.0,N
1503245215.6,286046993.2,N
1503245235.4,286046990.2,N
1503245255.2,286046994.8,N
1503245275.1,286046990.5,N
1503245276.0,286046990.5,N
1503245295.8,286046990.1,N
1503245315.6,286046992.0,N
1503245335.5,286046993.6,N
1503245355.3,286046996.4,N
1503245375.1,286046994.1,N
1503245395.9,286046990.5,P
1503245415.7,286046998.6,N
1503245435.5,286046998.6,N
1503245455.4,286047001.2,N
1503245475.2,286046998.4,N
1503245495.0,286046996.9,N
1503245495.9,286046996.9,N
1503245515.8,286046996.8,N
1503245535.6,286046996.1,N
1503245555.4,286046994.7,N
1503245575.3,286046992.5,N
1503245595.1,286046990.6,P
1503245596.0,286046990.6,P
1503245615.8,286046994.8,N
1503245635.7,286046991.2,P
1503245655.5,286046995.0,P
1503245675.3,286046995.5,N
1503245695.2,286046997.7,N
1503245715.9,286046995.1,N
1503245735.7,286046997.4,N
1503245755.6,286046993.8,N
1503245775.4,286046992.8,P
1503245795.2,286046999.8,N
1503245815.1,286046999.4,N
1503245816.0,286046999.4,N
1503245835.8,286046998.2,N
1503245855.6,286046995.6,N
1503245875.5,286046993.3,N
1503245895.3,286046995.6,N
1503245915.1,286046997.7,N
1503245935.9,286046997.8,N
1503245955.7,286046997.3,N
1503245975.5,286046993.6,N
1503245995.4,286046998.2,N
1503246015.2,286046999.6,N
1503246035.0,286046998.0,N
1503246035.9,286046998.0,N
1503246055.8,286046995.4,N
1503246075.6,286046996.3,N
1503246095.4,286046996.0,N
1503246115.2,286046995.1,N
1503246135.1,286046992.9,P
1503246136.0,286046992.9,P
1503246155.8,286046994.2,P
1503246175.7,286046998.0,N
1503246195.5,286046996.4,N
1503246215.3,286046990.3,P
1503246235.2,286046994.6,N
1503246255.9,286046990.2,P
1503246275.7,286046990.1,P
1503246295.6,286047000.9,N
1503246315.4,286047001.9,N
1503246335.2,286047004.2,N
1503246355.1,286047003.9,N
1503246356.0,286047003.9,N
1503246375.8,286046998.3,N
1503246395.6,286046998.1,N
1503246415.5,286047004.3,N
1503246435.3,286047008.3,N
1503246455.1,286047008.6,N
1503246475.9,286047007.4,N
1503246495.7,286047006.1,N
1503246515.5,286047003.3,N
1503246535.3,286047000.1,N
1503246555.2,286047005.9,N
1503246575.9,286047002.4,N
1503246595.7,286046999.9,N
1503246615.6,286047000.0,N
1503246635.4,286047000.7,N
1503246655.2,286047001.1,N
1503246675.1,286046999.5,N
1503246676.0,286046999.5,N
1503246695.8,286046993.3,N
1503246715.6,286046996.9,N
1503246735.5,286046999.2,N
1503246755.3,286046993.8,N
1503246775.1,286046996.2,N
1503246795.3,286046995.0,N
1503246815.1,286046995.3,N
1503246835.8,286046994.0,N
1503246855.7,286046993.0,N
1503246875.5,286046994.0,N
1503246895.3,286046996.4,N
1503246915.2,286046993.5,N
1503246935.0,286046993.4,N
1503246935.9,286046993.4,N
1503246955.7,286046995.6,N
1503246975.6,286046995.3,N
1503246995.4,286046994.8,N
1503247015.2,286046994.0,N
1503247035.1,286046994.3,N
1503247036.0,286046994.3,N
1503247055.8,286046996.0,N
1503247075.6,286046994.2,N
1503247095.5,286046996.2,N
1503247115.3,286046998.3,N
1503247135.1,286047000.7,N
1503247155.9,286047001.2,N
1503247175.7,286046998.2,N
1503247195.5,286046996.9,N
1503247215.4,286046999.6,N
1503247235.2,286046997.8,N
1503247255.0,286046997.6,N
1503247255.9,286046997.6,N
1503247275.8,286046998.0,N
1503247295.6,286046993.6,N
1503247315.4,286046992.6,P
1503247335.3,286046998.6,N
1503247355.2,286046997.1,N
1503247375.0,286046996.5,N
1503247375.9,286046996.5,N
1503247395.8,286046998.3,N
1503247415.6,286046998.2,N
1503247435.4,286046999.7,N
1503247455.3,286047003.8,N
1503247475.1,286047007.4,N
1503247476.0,286047007.4,N
1503247495.8,286047008.2,N
1503247515.6,286047004.7,N
1503247535.5,286047004.8,N
1503247555.3,286047006.0,N
1503247575.1,286047006.8,N
1503247595.9,286047002.9,N
1503247615.7,286047005.9,N
1503247635.5,286047004.1,N
1503247655.4,286047004.2,N
1503247675.2,286047002.1,N
1503247695.0,286047005.9,N
1503247695.9,286047005.9,N
1503247715.8,286047006.6,N
1503247735.6,286047008.5,N
1503247755.4,286047009.4,N
1503247775.3,286047006.8,N
1503247795.1,286047005.3,N
1503247796.0,286047005.3,N
1503247815.8,286047004.9,N
1503247835.7,286047005.5,N
1503247855.5,286047004.5,N
1503247875.3,286047004.7,N
1503247895.2,286047010.8,P
1503247915.9,286047002.9,N
1503247935.7,286047001.8,N
1503247955.6,286047001.0,N
1503247975.4,286047004.1,N
1503247995.2,286047001.8,N
1503248015.1,286047000.0,N
1503248016.0,286047000.0,N
1503248035.8,286046999.3,N
1503248055.6,286046997.0,N
1503248075.4,286046997.2,N
1503248095.3,286046999.2,N
1503248115.1,286046999.0,N
1503248135.8,286046995.4,N
1503248155.7,286046995.1,N
1503248175.5,286046996.0,N
1503248195.3,286046993.6,N
1503248215.2,286046992.2,N
1503248235.9,286046992.4,N
1503248255.7,286046990.8,N
1503248275.6,286046991.6,N
1503248295.4,286046988.9,N
1503248315.2,286046994.2,N
1503248335.1,286046995.4,N
1503248336.0,286046995.4,N
1503248355.8,286046998.7,N
1503248375.6,286047001.2,N
1503248395.4,286047000.5,N
